Location: Newark
(54.4000°N, 32.4500°E)
Time: 22:09:03
(UTC+00:00)

Envisat - Pass Details

Date: 27 January 2020
Orbit: 764 x 766 km, 98.1° (Epoch: 19 February)

Event Time Altitude Azimuth Distance (km) Brightness Sun altitude
Rises 16:15:30 0° 190° (S) 3,223 6.5 -16.7°
Reaches altitude 10° 16:17:59 10° 199° (SSW) 2,302 5.8 -17.1°
Maximum altitude 16:22:37 35° 265° (W) 1,217 4.7 -17.8°
Drops below altitude 10° 16:27:18 10° 331° (NNW) 2,316 5.8 -18.4°
Sets 16:29:49 0° 340° (NNW) 3,247 6.4 -18.8°
